Regional Weather Roundup
Issued by NWS

Home | Current Version | Previous Version | Graphics & Text | Print | Product List | Glossary On
Versions: 1 2 3 4 5 6 7 8 9 10 11 12 13 14 15 16 17 18 19 20 21 22 23 24 25 26 27 28 29 30 31 32 33 34 35 36 37 38 39 40 41 42 43 44 45 46 47 48 49 50
457
ASUS45 KSLC 290510
RWRUT

UTAH REGIONAL WEATHER ROUNDUP
NATIONAL WEATHER SERVICE SALT LAKE CITY UT
1100 PM MDT WED JUN 28 2017

UTZ001>011-023>025-290600-

NORTHERN UTAH

CITY           SKY/WX    TMP DP  RH WIND       PRES   REMARKS
BRIGHAM CITY   CLEAR     69  45  41 N3        29.92R
HILL AFB       CLEAR     69  39  33 E3        29.93R
LOGAN          PTCLDY    63  52  67 E3        29.94R
OGDEN          CLEAR     72  44  36 N7        29.90R
SALT LAKE CITY CLEAR     74  45  35 N7        29.88R
TOOELE VALLEY  CLEAR     68  46  45 CALM      29.91R
WENDOVER       CLEAR     76  26  15 W6        29.91R
HEBER CITY     CLEAR     57  34  41 E5        29.97R
WEST JORDAN    CLEAR     72  51  46 W7        29.93R

$$

UTZ011>015-024>027-290600-

CENTRAL/NORTHEAST UTAH

CITY           SKY/WX    TMP DP  RH WIND       PRES   REMARKS
PROVO AIRPORT  CLEAR     76  45  33 NW21      29.90R
MOAB/CANYONLAN CLEAR     79  14   8 W10       29.77R
DELTA          CLEAR     72  23  16 N9        29.91R
PRICE          CLEAR     69  26  20 NW7       29.94R
ROOSEVELT      CLEAR     68  32  26 NW7       29.91R
VERNAL         CLEAR     71  35  26 N12       29.90R

$$

UTZ013>016-019>022-027-290600-

SOUTHERN UTAH

CITY           SKY/WX    TMP DP  RH WIND       PRES   REMARKS
BRYCE CANYON   CLOUDY    53  15  22 CALM      30.14R
CEDAR CITY     CLEAR     65  19  17 SW6       29.99R
MILFORD        CLEAR     77  14   9 N12       29.91R
ST GEORGE      CLEAR     90  19   7 S3        29.77R
HANKSVILLE     CLEAR     82  16   8 W12       29.81R
BLANDING       CLEAR     78   7   6 W10       30.03R

$$

REGIONAL REPORTS     COLORADO/ARIZONA

CITY           SKY/WX    TMP DP  RH WIND       PRES   REMARKS
CRAIG, CO      CLOUDY    70  28  21 N5        29.99F
GRAND JUNCTION PTCLDY    78  14   9 E5        29.78R
RIFLE, CO      PTCLDY    79  23  12 NW5       29.87F
MONTROSE, CO   CLEAR     67  16  14 E8        29.91F
CORTEZ, CO     CLEAR     57  22  25 E9        29.97R
COLORADO CITY    N/A     68  19  15 CALM      29.98R
PAGE, AZ       CLEAR     89  13   6 W7        29.87R
GRAND CANYON   CLEAR     63  14  15 SW8       30.14R
KINGMAN, AZ    CLEAR     76  18  11 S10       29.88R
FLAGSTAFF, AZ  CLEAR     66  19  16 W10       30.18R

$$

REGIONAL REPORTS    NEVADA/IDAHO/WYOMING

CITY           SKY/WX    TMP DP  RH WIND       PRES   REMARKS
LAS VEGAS, NV  CLEAR     98  15   5 SW8       29.71R HX  91
ELY, NY        CLEAR     60  17  18 NW7       30.07R
ELKO, NV       PTCLDY    65  33  30 CALM      29.99R
POCATELLO, ID  CLEAR     59  40  49 SW9       29.93R
BURLEY, ID     CLEAR     58  42  55 SW8       29.92R
FORT BRIDGER,    N/A     53  38  55 SE8       30.13R
EVANSTON, WY   CLOUDY    58  40  51 N5        30.10R
ROCK SPRINGS,  CLEAR     52  35  52 S5        30.07S
KEMMERER, WY     N/A     52  37  58 NW6       30.10S

$$




USA.gov is the U.S. government's official web portal to all federal, state and local government web resources and services.